Location: Columbus
(29.5618°N, 96.6770°W)
Time: 21:20:24
(UTC-05:00)

Daily predictions for brighter satellites

Satellite Brightness Start Highest point End
(mag) Time Altitude Azimuth Time Altitude Azimuth Time Altitude Azimuth
FengYun 1-2 T 4.3 20:38:14 10° SSE 20:43:49 85° E 20:49:24 10° NNW
ASTRO E2 2.9 20:41:06 10° WNW 20:45:05 71° N 20:49:04 10° E
NOSS 2-2 (C) 4.0 20:41:30 10° SW 20:45:26 61° WNW 20:49:36 10° NNE
FENGYUN 3A 4.1 20:44:32 10° S 20:49:49 65° WSW 20:55:09 10° NNW
Cosmos 1975 3.3 20:47:30 10° N 20:51:23 42° E 20:55:16 10° SSE
Cosmos 1743 4.3 20:49:20 10° NNE 20:52:07 19° ENE 20:54:54 10° SE
ISS -2.3 20:50:46 10° WSW 20:53:53 41° NW 20:57:02 10° NNE
Aureole 3 Rocket 4.5 20:48:10 10° SSE 20:54:30 36° E 20:59:12 10° NNE
Cosmos 1346 4.1 20:52:19 10° SSE 20:54:33 22° E 20:56:47 10° NE
OAO 2 Rocket 4.2 20:53:31 10° WNW 20:58:14 45° N 21:03:00 10° ENE
CZ-2D R/B 3.2 20:55:02 10° SSE 20:58:48 66° ENE 21:02:35 10° N
Spot 2 Rocket 3.5 20:55:03 10° SSE 21:00:02 69° ENE 21:05:03 10° N
Helios 1A 4.1 20:58:50 10° SE 21:02:18 27° ENE 21:05:51 10° NNE
GPS 2-14 Rocket1 4.3 20:59:46 10° SW 21:02:22 17° S 21:04:24 12° SE
SL-27 R/B 3.1 20:59:56 10° SSE 21:03:17 36° ESE 21:06:40 10° NE
H-2A R/B 3.5 21:02:40 10° S 21:06:16 50° W 21:09:52 10° NNW
Cosmos 1939 Rocket 4.1 21:04:16 13° ESE 21:06:48 23° ENE 21:09:52 10° NNE
USA 81 4.0 21:03:35 10° S 21:08:47 66° E 21:14:01 10° N
Iridium 4 Rocket 3.8 21:03:52 10° N 21:09:09 82° W 21:14:51 10° S
Cosmos 1709 Rocket 4.1 21:04:57 10° N 21:11:12 82° W 21:17:20 10° S
Cosmos 1680 Rocket 3.4 21:07:35 10° S 21:12:48 78° ESE 21:18:00 10° NNE
Cosmos 1666 4.0 21:11:47 10° NNE 21:14:45 22° E 21:16:14 17° ESE
Cosmos 1437 3.6 21:14:14 10° SSW 21:17:22 53° W 21:20:31 10° N
CZ-3B Rocket 3.3 21:15:01 10° SW 21:18:12 24° SSE 21:21:33 16° ESE
Cosmos 1536 Rocket 3.9 21:16:56 10° SSW 21:21:12 65° W 21:25:30 10° N
Envisat 3.2 21:17:49 13° SSE 21:22:16 55° ENE 21:27:14 10° N
USA 186 2.1 21:22:29 10° S 21:25:41 65° W 21:28:49 10° NNW
Meteor 2-4 Rocket 3.8 21:20:26 10° S 21:25:53 57° E 21:31:30 10° NNE
Cosmos 1656 Rocket 3.7 21:20:57 10° NNW 21:26:21 62° ENE 21:30:21 19° SE
COSMOS 2455 3.2 21:24:30 10° NNW 21:30:26 64° WSW 21:36:05 11° S
Helios 1B rocket 2.5 21:26:53 10° N 21:31:00 83° WNW 21:35:08 10° SSW
Aurora 2 Rocket 4.2 21:24:55 10° W 21:31:50 61° S 21:38:55 19° ESE
Cosmos 192 4.2 21:27:34 10° SSW 21:32:28 85° ESE 21:37:23 10° NNE
Hubble Space Telescope 2.1 21:31:24 10° SSW 21:34:23 21° SSE 21:34:23 21° SSE
Orbus 7S 4.4 21:31:53 10° SW 21:34:38 40° SSE 21:38:12 18° E
XTE 4.5 21:35:19 10° SW 21:37:20 21° S 21:37:20 21° S
Cosmos 1025 Rocket 3.3 21:36:04 24° SSE 21:38:16 44° E 21:42:19 10° NNE
Cosmos 405 4.1 21:37:18 10° NNE 21:40:20 26° ENE 21:40:27 26° E
Spot 1 4.1 21:38:58 21° SSE 21:42:04 80° ENE 21:46:26 10° N
CZ-3A R/B 1.7 21:38:57 10° SW 21:46:44 71° NW 21:49:16 10° NNE
Cosmos 405 Rocket 4.3 21:44:36 10° SSW 21:48:02 35° W 21:51:32 10° NNW
Cosmos 1943 Rocket 3.8 21:43:51 10° NW 21:48:38 30° WSW 21:53:22 10° SSW
Aureole 1 Rocket 4.1 21:46:11 10° SW 21:49:28 34° WNW 21:52:19 10° N
Cosmos 2074 Rocket 4.0 21:46:40 10° N 21:52:57 89° E 21:57:47 18° S
Okean 2 3.5 21:54:01 43° SE 21:54:55 53° E 21:58:54 10° NNE
Cosmos 2184 Rocket 4.0 21:49:57 10° N 21:56:19 89° W 22:00:55 19° S
Tiangong 2 4.5 21:56:03 10° NNW 21:56:36 10° NNW 21:57:10 10° N
Cosmos 1441 Rocket 3.7 21:53:25 12° SSW 21:56:45 58° W 22:00:25 10° N
Cosmos 1610 Rocket 4.5 21:51:36 10° N 21:57:47 63° E 22:00:51 30° SSE
ARGOS 4.2 21:58:32 26° E 21:59:37 28° ENE 22:04:11 10° NNE
Resurs 01 Rocket 4.2 21:59:12 10° SW 22:02:10 18° W 22:05:09 10° NW
ERS-1 Rocket 3.1 22:01:27 39° SE 22:02:59 56° ENE 22:07:53 10° N
Meteor 1-23 Rocket 4.2 21:57:44 10° S 22:03:15 83° W 22:08:52 10° N
NOAA 11 4.5 22:05:25 38° ESE 22:06:55 48° ENE 22:12:07 10° N
SPOT 5 3.8 22:09:29 27° ENE 22:09:29 27° ENE 22:12:54 10° NNE
MetOp-B 4.2 22:18:17 49° ESE 22:19:18 58° ENE 22:24:33 10° N
CENTAUR R/B 3.5 22:11:59 10° NW 22:20:01 61° WSW 22:24:51 27° S
Cosmos 2082 Rocket 2.2 22:23:34 54° SE 22:24:11 57° ESE 22:29:44 10° NNE
ASTRO E2 3.4 22:21:44 10° W 22:24:51 44° WSW 22:24:51 44° WSW
MOS 1-B Rocket 3.8 22:26:27 52° SE 22:27:50 73° ENE 22:34:00 10° N
Meteor 1-15 Rocket 4.1 22:22:59 10° N 22:28:35 86° E 22:29:49 56° SSE
Cosmos 2278 4.5 22:25:47 10° N 22:30:59 36° ENE 22:31:15 35° ENE
Meteor 2-19 Rocket 4.3 22:28:49 10° N 22:34:57 73° E 22:36:04 59° SE
SL-24 DEB 4.5 22:35:50 57° NE 22:35:50 57° NE 22:39:51 10° N
ASTEX 1 4.3 22:34:37 29° SW 22:36:36 42° W 22:41:15 10° NNW
SL-8 Rocket 4.4 22:32:27 10° N 22:38:22 43° E 22:38:28 43° E
H-2A R/B 2.7 22:40:27 39° NE 22:40:27 39° NE 22:44:29 10° N
Cosmos 2154 Rocket 4.1 22:34:05 10° N 22:40:26 74° W 22:42:32 44° SSW
YAOGAN 6 4.4 22:41:01 24° W 22:41:02 24° W 22:43:55 10° NW
Mugunghwa Rocket 4.4 22:34:11 10° WSW 22:42:25 65° S 22:44:09 52° ESE
OAO 2 Rocket 3.8 22:38:38 10° WNW 22:43:29 53° NNE 22:44:05 49° NE
Cosmos 1624 Rocket 3.9 22:40:31 10° NNW 22:45:49 89° WSW 22:45:57 86° S
Cosmos 2228 4.2 22:43:43 10° N 22:46:19 33° NNE 22:46:19 33° NNE
SL-08 RB Rocket 4.2 22:50:33 53° N 22:50:33 53° N 22:54:03 10° N
Cosmos 921 Rocket 3.9 22:46:09 10° N 22:49:22 44° NNE 22:49:22 44° NNE
Cosmos 2369 4.0 22:45:16 10° N 22:50:41 54° ENE 22:50:41 54° ENE
Cosmos 1697 Rocket 4.1 22:46:52 10° N 22:50:57 25° NE 22:50:57 25° NE
Cosmos 1892 Rocket 4.4 22:52:30 46° W 22:52:42 46° W 22:56:57 10° N
Cosmos 1656 4.4 22:53:38 10° N 22:58:04 40° NE 22:58:04 40° NE
Cosmos 1833 Rocket 2.8 23:00:38 61° WSW 23:01:23 69° WNW 23:07:00 10° NNE
Cosmos 1437 Rocket 4.5 22:58:07 10° NNW 23:00:45 31° WNW 23:00:45 31° WNW
Cosmos 2056 Rocket 3.8 23:00:01 10° NNW 23:04:38 58° WNW 23:04:38 58° WNW
DMSP B5D2-2 4.4 23:02:21 10° NNE 23:06:34 58° NNE 23:06:34 58° NNE
Timation 2 Rocket 3.9 23:08:52 78° ENE 23:08:52 78° ENE 23:14:46 10° NNE
Cosmos 1066 Rocket 4.5 23:16:09 60° WNW 23:16:09 60° WNW 23:21:31 10° N
Cosmos 2218 Rocket 4.0 23:18:33 10° N 23:24:05 74° N 23:24:05 74° N
Cosmos 1452 Rocket 4.5 23:31:50 10° NNW 23:35:24 44° NNW 23:35:24 44° NNW
Cosmos 1980 Rocket 3.5 23:34:35 10° N 23:38:08 31° NNE 23:38:08 31° NNE
Terra 3.5 23:46:50 31° NNW 23:46:50 31° NNW 23:49:19 10° NNW
H-2A R/B 4.2 23:52:19 25° NNW 23:52:19 25° NNW 23:54:16 10° NNW
Cosmos 2322 Rocket 4.4 23:46:46 10° NNE 23:48:59 15° NE 23:48:59 15° NE
